Moline, IL
on Tuesday, February 5, 2013

Tuesday
Previous Day Next Day
Daily Summary
 ActualAverageRecord
Temperature
Mean Temperature °F 24°F  
Max Temperature 37°F 33°F 63°F (1946)
Min Temperature 13°F 15°F -21°F (1979)
Degree Days
Heating Degree Days 40 41  
Month to date heating degree days 226 207  
Since 1 July heating degree days 3798 3941  
Cooling Degree Days 0 0  
Month to date cooling degree days 0 0  
Year to date cooling degree days 0 0  
Moisture
Dew Point 23°F   
Average Humidity 79    
Maximum Humidity 88    
Minimum Humidity 69    
Precipitation
Precipitation T in 0.04 in 1.21 in (1911)
Month to date precipitation 0.05 0.22  
Year to date precipitation 2.91 1.71  
Snow
Snow T in 0.20 in in ()
Month to date snowfall 1.1 1.4  
Since 1 July snowfall 10.7 21.3  
Snow Depth 1.00 in   
Wind
Wind Speed 8 mph   
Max Wind Speed 21 mph   
Max Gust Speed 28 mph   
Visibility 9 miles   
Events     

Key: T is trace of precipitation, MM is missing value
Source: NWS Daily Summary
Time(CST)TemperatureDew PointHumidity Pressure Visibility Wind DirectionWind SpeedGust SpeedPrecipitationEvents Conditions
12:52 AM 15.1°F 10.9°F 84% 29.98 in 9.0 miles Calm Calm - N/A   Clear
1:52 AM 17.1°F 12.0°F 81% 29.96 in 9.0 miles South 3.5 mph - N/A   Partly Cloudy
2:52 AM 18.0°F 12.9°F 81% 29.94 in 9.0 miles SSW 3.5 mph - N/A   Overcast
3:52 AM 19.9°F 14.0°F 78% 29.93 in 9.0 miles Calm Calm - N/A   Overcast
4:52 AM 21.0°F 16.0°F 81% 29.91 in 9.0 miles Calm Calm - N/A   Overcast
5:52 AM 21.9°F 17.1°F 82% 29.89 in 8.0 miles Calm Calm - N/A   Overcast
6:52 AM 23.0°F 19.0°F 85% 29.89 in 7.0 miles SSW 6.9 mph - N/A   Overcast
7:52 AM 23.0°F 19.0°F 85% 29.88 in 5.0 miles SW 3.5 mph - N/A   Clear
8:52 AM 26.1°F 21.0°F 81% 29.87 in 6.0 miles SW 11.5 mph - N/A   Haze
9:52 AM 30.0°F 23.0°F 75% 29.85 in 7.0 miles WSW 13.8 mph 24.2 mph N/A   Mostly Cloudy
10:52 AM 32.0°F 24.1°F 73% 29.85 in 7.0 miles WSW 15.0 mph 21.9 mph N/A   Partly Cloudy
11:50 AM 33.8°F 24.8°F 70% 29.83 in 10.0 miles WSW 12.7 mph - N/A   Mostly Cloudy
11:52 AM 33.1°F 25.0°F 72% 29.86 in 10.0 miles WSW 11.5 mph - N/A   Mostly Cloudy
12:28 PM 35.6°F 26.6°F 70% 29.83 in 10.0 miles West 17.3 mph - N/A   Unknown
12:52 PM 36.0°F 26.1°F 67% 29.87 in 10.0 miles WNW 11.5 mph - N/A   Scattered Clouds
1:52 PM 35.1°F 26.1°F 70% 29.87 in 8.0 miles West 17.3 mph 21.9 mph N/A   Overcast
2:20 PM 37.4°F 28.4°F 70% 29.85 in 9.0 miles WNW 13.8 mph 21.9 mph N/A   Overcast
2:52 PM 37.0°F 28.9°F 73% 29.89 in 9.0 miles West 15.0 mph 20.7 mph N/A   Mostly Cloudy
2:59 PM 37.4°F 28.4°F 70% 29.88 in 9.0 miles West 15.0 mph - N/A   Scattered Clouds
3:29 PM 35.6°F 28.4°F 75% 29.90 in 9.0 miles NW 15.0 mph 27.6 mph N/A   Mostly Cloudy
3:52 PM 36.0°F 28.0°F 73% 29.93 in 10.0 miles WNW 18.4 mph 25.3 mph N/A   Overcast
4:52 PM 35.6°F 26.6°F 70% 29.95 in 10.0 miles NW 12.7 mph - N/A   Overcast
5:21 PM 35.6°F 26.6°F 70% 29.95 in 10.0 miles NW 16.1 mph 21.9 mph N/A   Overcast
5:52 PM 35.1°F 27.0°F 72% 29.99 in 10.0 miles NW 15.0 mph 21.9 mph N/A   Overcast
6:52 PM 36.0°F 28.0°F 73% 30.01 in 10.0 miles NW 10.4 mph - N/A   Overcast
7:52 PM 35.1°F 27.0°F 72% 30.04 in 10.0 miles NW 9.2 mph 18.4 mph N/A   Overcast
8:52 PM 34.0°F 25.0°F 70% 30.06 in 10.0 miles NNW 8.1 mph - N/A   Overcast
9:52 PM 32.0°F 24.1°F 73% 30.08 in 10.0 miles WNW 5.8 mph - N/A   Mostly Cloudy
10:52 PM 32.0°F 25.0°F 75% 30.10 in 10.0 miles NW 4.6 mph - N/A   Overcast
11:44 PM 32.0°F 24.8°F 75% 30.10 in 10.0 miles NNW 6.9 mph - N/A   Overcast
11:52 PM 32.0°F 24.1°F 73% 30.12 in 10.0 miles NNW 5.8 mph - N/A   Overcast
Astronomy
Sunrise:07:09 AM (CST) Moon Rise:02:52 AM (CST)2/5
Sunset:05:23 PM (CST) Moon Set:12:39 PM (CST)2/5
Moon Phase
Feb. 05 Feb. 10 Feb. 17 Feb. 25 Mar. 04

Copyright © 2016 The Weather Underground, Inc.















  Today is Thursday, June 30, the 182nd day of 2016. There are 184 days left in the year.
1866 — 150 years ago: Some gentlemen, with Surveyor Stoddard marking off the ground, are constructing a new race track on the low ground just this side of the old track.
1891 — 125 years ago: Plans for the rag carpet entertainment of the Women's Relief corps in GAR hall Thursday night were announced by S.J. Hemenway, president.
1916 — 100 years ago: Theodore Seiter received severe injuries when his bicycle and an automobile collided.
1941 — 75 years ago: Col. W. Don Jones, Rock Island, was renamed state commander of the Disabled Americans Veteran of the World War.
1966 — 50 years ago: More than 600 persons attended the first in this summer's series of Starlight Revues last night at the Lincoln Park bandstand.
1991 — 25 years ago: With a stiff breeze whipping off the Mississippi on Thursday, the 10th annual WQAD-TV/Hardee's Balloon Festival's plans for a media trial race to kick off festivities were all but ruined.